Location: Les Coudrans
(46.1056°N, 1.1158°W)
Time: 20:49:42
(UTC+00:00)

Meteor 2-20 - Pass Details

Date: 03 March 2021
Orbit: 940 x 958 km, 82.5° (Epoch: 20 April)

Event Time Altitude Azimuth Distance (km) Brightness Sun altitude
Rises 20:28:44 0° 350° (N) 3,623 7.9 -27.2°
Reaches altitude 10° 20:31:13 10° 350° (N) 2,676 7.1 -27.6°
Maximum altitude 20:37:21 83° 263° (W) 961 4.4 -28.6°
Enters shadow 20:38:10 68° 190° (S) 1,018 4.4 -28.8°
